| time (UTC) | temp C | wind direction | speed KPH | gust KPH | rain 1hr cm | rain 24hr cm | rain mn cm | humidity % | barometer mb |
| 20260504110510 | 33 | 224 | 4.8 | 9.7 | 0.00 | 0.00 | 0.00 | 70 | 1000.9 |
| 20260504100509 | 34 | 190 | 6.4 | 9.7 | 0.00 | 0.00 | 0.00 | 66 | 1001.5 |
| 20260504082008 | 33 | 277 | 9.7 | 16.1 | 0.00 | 0.00 | 0.00 | 69 | 1002.5 |
| 20260504081509 | 33 | 205 | 8.0 | 9.7 | 0.00 | 0.00 | 0.00 | 69 | 1002.6 |
| 20260504050509 | 31 | 270 | 8.0 | 11.3 | 0.00 | 0.00 | 0.00 | 75 | 1004.1 |
| 20260504050009 | 31 | 270 | 4.8 | 16.1 | 0.00 | 0.00 | 0.00 | 76 | 1004.1 |
| 20260504044509 | 31 | 284 | 4.8 | 11.3 | 0.00 | 0.00 | 0.00 | 78 | 1004.2 |
| 20260504044008 | 30 | 320 | 8.0 | 14.5 | 0.00 | 0.00 | 0.00 | 79 | 1004.5 |
| 20260504043509 | 30 | 296 | 6.4 | 12.9 | 0.00 | 0.00 | 0.00 | 79 | 1004.5 |
| 20260504043009 | 30 | 275 | 8.0 | 14.5 | 0.00 | 0.00 | 0.00 | 79 | 1004.6 |
| 20260504042008 | 30 | 298 | 4.8 | 14.5 | 0.00 | 0.00 | 0.00 | 80 | 1004.6 |
| 20260504041508 | 30 | 276 | 8.0 | 14.5 | 0.00 | 0.00 | 0.00 | 80 | 1004.6 |
| 20260504041009 | 30 | 270 | 6.4 | 11.3 | 0.00 | 0.00 | 0.00 | 80 | 1004.6 |
| 20260504040508 | 30 | 315 | 6.4 | 9.7 | 0.00 | 0.00 | 0.00 | 81 | 1004.6 |
| 20260504040009 | 30 | 285 | 4.8 | 9.7 | 0.00 | 0.00 | 0.00 | 82 | 1004.6 |
| 20260504035508 | 30 | 295 | 9.7 | 12.9 | 0.00 | 0.00 | 0.00 | 82 | 1004.6 |
| 20260504035008 | 30 | 270 | 4.8 | 11.3 | 0.00 | 0.00 | 0.00 | 82 | 1004.6 |
| 20260504034008 | 30 | 280 | 4.8 | 9.7 | 0.00 | 0.00 | 0.00 | 83 | 1004.6 |
| 20260504033508 | 30 | 303 | 3.2 | 9.7 | 0.00 | 0.00 | 0.00 | 83 | 1004.6 |
| 20260504033008 | 29 | 270 | 4.8 | 9.7 | 0.00 | 0.00 | 0.00 | 84 | 1004.5 |
| 20260504032508 | 29 | 292 | 4.8 | 8.0 | 0.00 | 0.00 | 0.00 | 84 | 1004.5 |
| 20260504032007 | 29 | 296 | 3.2 | 4.8 | 0.00 | 0.00 | 0.00 | 84 | 1004.5 |
| 20260504031508 | 28 | 292 | 6.4 | 9.7 | 0.00 | 0.00 | 0.00 | 84 | 1004.3 |
| 20260504030508 | 28 | 320 | 8.0 | 9.7 | 0.00 | 0.00 | 0.00 | 84 | 1004.2 |
| 20260504030008 | 29 | 271 | 6.4 | 9.7 | 0.00 | 0.00 | 0.00 | 84 | 1004.2 |
| 20260504025508 | 29 | 270 | 4.8 | 11.3 | 0.00 | 0.00 | 0.00 | 84 | 1004.1 |
| 20260504024008 | 28 | 333 | 3.2 | 9.7 | 0.00 | 0.00 | 0.00 | 84 | 1004.0 |
| 20260504023508 | 28 | 301 | 4.8 | 9.7 | 0.00 | 0.00 | 0.00 | 84 | 1004.0 |
| 20260504023008 | 28 | 292 | 3.2 | 9.7 | 0.00 | 0.00 | 0.00 | 84 | 1004.0 |
| 20260504022507 | 28 | 302 | 4.8 | 9.7 | 0.00 | 0.00 | 0.00 | 84 | 1004.0 |
| 20260504022008 | 28 | 272 | 8.0 | 9.7 | 0.00 | 0.00 | 0.00 | 84 | 1004.0 |
| 20260504021508 | 28 | 285 | 6.4 | 9.7 | 0.00 | 0.00 | 0.00 | 86 | 1003.9 |
| 20260504021009 | 28 | 302 | 4.8 | 11.3 | 0.00 | 0.00 | 0.00 | 86 | 1003.9 |
| 20260504020508 | 28 | 289 | 8.0 | 9.7 | 0.00 | 0.00 | 0.00 | 88 | 1003.8 |
| 20260504020008 | 27 | 309 | 4.8 | 9.7 | 0.00 | 0.00 | 0.00 | 89 | 1003.8 |
| 20260504013508 | 27 | 279 | 3.2 | 8.0 | 0.00 | 0.00 | 0.00 | 92 | 1003.5 |
| 20260504013007 | 27 | 315 | 4.8 | 8.0 | 0.00 | 0.00 | 0.00 | 93 | 1003.5 |
| 20260504012508 | 26 | 343 | 3.2 | 8.0 | 0.00 | 0.00 | 0.00 | 94 | 1003.5 |
| 20260504012007 | 26 | 327 | 3.2 | 4.8 | 0.00 | 0.00 | 0.00 | 95 | 1003.4 |
| 20260504011008 | 26 | 270 | 3.2 | 8.0 | 0.00 | 0.00 | 0.00 | 96 | 1003.4 |
| 20260504010508 | 26 | 297 | 1.6 | 3.2 | 0.00 | 0.00 | 0.00 | 96 | 1003.0 |
| 20260504010008 | 26 | 292 | 1.6 | 3.2 | 0.00 | 0.00 | 0.00 | 96 | 1003.0 |
| 20260504005508 | 26 | 292 | 4.8 | 8.0 | 0.00 | 0.00 | 0.00 | 96 | 1002.5 |
| 20260504005008 | 26 | 289 | 3.2 | 8.0 | 0.00 | 0.00 | 0.00 | 96 | 1002.5 |
| 20260504004508 | 26 | 272 | 3.2 | 8.0 | 0.00 | 0.00 | 0.00 | 96 | 1002.5 |
| 20260504003507 | 26 | 281 | 4.8 | 8.0 | 0.00 | 0.00 | 0.00 | 96 | 1002.5 |
| 20260504003008 | 26 | 309 | 4.8 | 9.7 | 0.00 | 0.00 | 0.00 | 96 | 1002.4 |
| 20260504002508 | 26 | 281 | 4.8 | 9.7 | 0.00 | 0.00 | 0.00 | 96 | 1002.4 |
| 20260504001508 | 26 | 288 | 3.2 | 8.0 | 0.00 | 0.00 | 0.00 | 96 | 1002.4 |
| 20260504001008 | 26 | 287 | 4.8 | 9.7 | 0.00 | 0.00 | 0.00 | 96 | 1002.4 |
| 20260504000508 | 26 | 286 | 4.8 | 8.0 | 0.00 | 0.00 | 0.00 | 95 | 1002.4 |
| 20260503235507 | 26 | 292 | 1.6 | 4.8 | 0.00 | 0.00 | 0.00 | 95 | 1002.2 |
| 20260503235008 | 26 | 301 | 3.2 | 4.8 | 0.00 | 0.00 | 0.00 | 95 | 1002.2 |
| 20260503234508 | 26 | 303 | 3.2 | 3.2 | 0.00 | 0.00 | 0.00 | 95 | 1002.2 |
| 20260503234007 | 26 | 292 | 1.6 | 8.0 | 0.00 | 0.00 | 0.00 | 95 | 1002.1 |
| 20260503233507 | 26 | 299 | 3.2 | 4.8 | 0.00 | 0.00 | 0.00 | 95 | 1002.1 |
| 20260503233008 | 26 | 282 | 3.2 | 4.8 | 0.00 | 0.00 | 0.00 | 95 | 1001.9 |
| 20260503232507 | 26 | 292 | 3.2 | 8.0 | 0.00 | 0.00 | 0.00 | 95 | 1001.9 |
| 20260503232007 | 26 | 270 | 3.2 | 8.0 | 0.00 | 0.00 | 0.00 | 95 | 1001.8 |
| 20260503231507 | 26 | 271 | 3.2 | 4.8 | 0.00 | 0.00 | 0.00 | 95 | 1001.8 |
| 20260503231007 | 26 | 281 | 4.8 | 8.0 | 0.00 | 0.00 | 0.00 | 94 | 1001.8 |
| 20260503230508 | 26 | 292 | 3.2 | 9.7 | 0.00 | 0.00 | 0.00 | 94 | 1001.7 |
| 20260503225508 | 26 | 270 | 3.2 | 8.0 | 0.00 | 0.00 | 0.00 | 94 | 1001.7 |
| 20260503225008 | 26 | 270 | 4.8 | 8.0 | 0.00 | 0.00 | 0.00 | 94 | 1001.7 |
| 20260503224508 | 26 | 281 | 3.2 | 8.0 | 0.00 | 0.00 | 0.00 | 94 | 1001.7 |
| 20260503224007 | 26 | 270 | 4.8 | 8.0 | 0.00 | 0.00 | 0.00 | 94 | 1001.7 |
| 20260503223508 | 26 | 275 | 4.8 | 8.0 | 0.00 | 0.00 | 0.00 | 94 | 1001.7 |
| 20260503223008 | 26 | 289 | 4.8 | 9.7 | 0.00 | 0.00 | 0.00 | 93 | 1001.6 |
| 20260503222507 | 26 | 285 | 3.2 | 9.7 | 0.00 | 0.00 | 0.00 | 93 | 1001.6 |
| 20260503221507 | 26 | 325 | 6.4 | 9.7 | 0.00 | 0.00 | 0.00 | 93 | 1001.4 |
| 20260503221007 | 26 | 276 | 4.8 | 9.7 | 0.00 | 0.00 | 0.00 | 93 | 1001.4 |
| 20260503220508 | 26 | 283 | 4.8 | 11.3 | 0.00 | 0.00 | 0.00 | 93 | 1001.6 |
| 20260503220008 | 27 | 279 | 6.4 | 11.3 | 0.00 | 0.00 | 0.00 | 93 | 1001.6 |
| 20260503215507 | 27 | 270 | 4.8 | 11.3 | 0.00 | 0.00 | 0.00 | 93 | 1001.7 |
| 20260503214507 | 27 | 283 | 4.8 | 11.3 | 0.00 | 0.00 | 0.00 | 93 | 1001.7 |
| 20260503213508 | 27 | 261 | 4.8 | 16.1 | 0.00 | 0.00 | 0.00 | 93 | 1001.8 |
| 20260503213007 | 27 | 284 | 4.8 | 12.9 | 0.00 | 0.00 | 0.00 | 93 | 1002.1 |
| 20260503212507 | 27 | 311 | 8.0 | 11.3 | 0.00 | 0.00 | 0.00 | 93 | 1002.1 |
| 20260503212007 | 27 | 275 | 4.8 | 9.7 | 0.00 | 0.00 | 0.00 | 93 | 1002.1 |
| 20260503211007 | 27 | 286 | 4.8 | 8.0 | 0.00 | 0.00 | 0.00 | 93 | 1002.1 |
| 20260503210507 | 27 | 327 | 6.4 | 9.7 | 0.00 | 0.00 | 0.00 | 93 | 1002.2 |
| 20260503210007 | 27 | 279 | 8.0 | 11.3 | 0.00 | 0.00 | 0.00 | 93 | 1002.2 |
| 20260503205507 | 27 | 280 | 8.0 | 12.9 | 0.00 | 0.00 | 0.00 | 93 | 1002.4 |
| 20260503205007 | 27 | 298 | 8.0 | 12.9 | 0.00 | 0.00 | 0.00 | 93 | 1002.4 |
| 20260503204507 | 27 | 288 | 8.0 | 11.3 | 0.00 | 0.00 | 0.00 | 93 | 1002.4 |
| 20260503204007 | 27 | 333 | 4.8 | 9.7 | 0.00 | 0.00 | 0.00 | 93 | 1002.7 |
| 20260503203507 | 27 | 306 | 4.8 | 9.7 | 0.00 | 0.00 | 0.00 | 93 | 1002.7 |
| 20260503203007 | 27 | 298 | 4.8 | 9.7 | 0.00 | 0.00 | 0.00 | 93 | 1002.7 |
| 20260503202507 | 27 | 287 | 6.4 | 9.7 | 0.00 | 0.00 | 0.00 | 93 | 1002.7 |
| 20260503202007 | 27 | 280 | 8.0 | 9.7 | 0.00 | 0.00 | 0.00 | 93 | 1002.7 |
| 20260503201508 | 27 | 303 | 4.8 | 9.7 | 0.00 | 0.00 | 0.00 | 93 | 1003.2 |
| 20260503201008 | 27 | 292 | 6.4 | 9.7 | 0.00 | 0.00 | 0.00 | 93 | 1003.2 |
| 20260503200507 | 27 | 273 | 8.0 | 11.3 | 0.00 | 0.00 | 0.00 | 93 | 1003.4 |
| 20260503200008 | 27 | 279 | 8.0 | 11.3 | 0.00 | 0.00 | 0.00 | 93 | 1003.4 |
| 20260503195507 | 27 | 285 | 4.8 | 9.7 | 0.00 | 0.00 | 0.00 | 93 | 1003.6 |
| 20260503195007 | 27 | 270 | 4.8 | 9.7 | 0.00 | 0.00 | 0.00 | 93 | 1003.6 |
| 20260503194008 | 27 | 302 | 4.8 | 9.7 | 0.00 | 0.00 | 0.00 | 93 | 1003.6 |
| 20260503192507 | 27 | 281 | 3.2 | 8.0 | 0.00 | 0.00 | 0.00 | 93 | 1003.9 |
| 20260503192007 | 27 | 283 | 4.8 | 8.0 | 0.00 | 0.00 | 0.00 | 93 | 1003.9 |
| 20260503191507 | 27 | 270 | 4.8 | 9.7 | 0.00 | 0.00 | 0.00 | 93 | 1004.1 |
| 20260503191007 | 27 | 270 | 4.8 | 16.1 | 0.00 | 0.00 | 0.00 | 93 | 1004.1 |
| 20260503190507 | 27 | 288 | 4.8 | 9.7 | 0.00 | 0.00 | 0.00 | 93 | 1004.3 |
| 20260503190007 | 27 | 270 | 3.2 | 4.8 | 0.00 | 0.00 | 0.00 | 93 | 1004.3 |
| 20260503185507 | 27 | 292 | 3.2 | 8.0 | 0.00 | 0.00 | 0.00 | 93 | 1004.2 |
| 20260503184506 | 27 | 292 | 3.2 | 9.7 | 0.00 | 0.00 | 0.00 | 93 | 1004.2 |
| 20260503184007 | 27 | 270 | 4.8 | 8.0 | 0.00 | 0.00 | 0.00 | 93 | 1004.0 |
| 20260503183507 | 27 | 297 | 4.8 | 8.0 | 0.00 | 0.00 | 0.00 | 93 | 1004.0 |
| 20260503183007 | 27 | 282 | 4.8 | 11.3 | 0.00 | 0.00 | 0.00 | 93 | 1004.0 |
| 20260503182507 | 27 | 270 | 4.8 | 9.7 | 0.00 | 0.00 | 0.00 | 93 | 1004.0 |
| 20260503182007 | 27 | 282 | 6.4 | 9.7 | 0.00 | 0.00 | 0.00 | 93 | 1004.1 |
| 20260503181007 | 27 | 271 | 3.2 | 9.7 | 0.00 | 0.00 | 0.00 | 93 | 1004.2 |
| 20260503180507 | 27 | 273 | 6.4 | 9.7 | 0.00 | 0.00 | 0.00 | 93 | 1004.4 |
| 20260503180008 | 27 | 270 | 4.8 | 8.0 | 0.00 | 0.00 | 0.00 | 93 | 1004.4 |
| 20260503175507 | 27 | 253 | 8.0 | 11.3 | 0.00 | 0.00 | 0.00 | 93 | 1004.3 |
| 20260503174507 | 27 | 336 | 3.2 | 8.0 | 0.00 | 0.00 | 0.00 | 94 | 1004.3 |
| 20260503174007 | 27 | 291 | 3.2 | 4.8 | 0.00 | 0.00 | 0.00 | 94 | 1004.0 |
| 20260503173508 | 27 | 270 | 1.6 | 4.8 | 0.00 | 0.00 | 0.00 | 94 | 1004.0 |
| 20260503173007 | 27 | 270 | 3.2 | 8.0 | 0.00 | 0.00 | 0.00 | 94 | 1004.2 |
| 20260503172507 | 27 | 291 | 4.8 | 8.0 | 0.00 | 0.00 | 0.00 | 94 | 1004.2 |
| 20260503172007 | 28 | 279 | 4.8 | 9.7 | 0.00 | 0.00 | 0.00 | 94 | 1004.2 |
| 20260503171507 | 28 | 275 | 3.2 | 9.7 | 0.00 | 0.00 | 0.00 | 94 | 1004.3 |
| 20260503171007 | 28 | 310 | 4.8 | 4.8 | 0.00 | 0.00 | 0.00 | 94 | 1004.3 |
| 20260503170507 | 28 | 270 | 3.2 | 9.7 | 0.00 | 0.00 | 0.00 | 94 | 1004.4 |
| 20260503151006 | 28 | 280 | 3.2 | 8.0 | 0.00 | 0.00 | 0.00 | 92 | 1003.7 |
| 20260503150507 | 28 | 293 | 3.2 | 8.0 | 0.00 | 0.00 | 0.00 | 91 | 1003.6 |
| 20260503131007 | 30 | 264 | 4.8 | 9.7 | 0.00 | 0.00 | 0.00 | 85 | 1002.3 |
| 20260503130507 | 30 | 258 | 4.8 | 8.0 | 0.00 | 0.00 | 0.00 | 85 | 1002.1 |